| time (UTC) | temp C | wind direction | speed KPH | gust KPH | rain 1hr cm | rain 24hr cm | rain mn cm | humidity % | barometer mb |
| 20260504081603 | 16 | 200 | 0.0 | 9.7 | 0.00 | 0.00 | 0.00 | 45 | 1020.7 |
| 20260504050015 | 11 | 200 | 0.0 | 0.0 | 0.00 | 0.03 | 0.00 | 64 | 1020.0 |
| 20260504044600 | 10 | 200 | 0.0 | 1.6 | 0.00 | 0.03 | 0.00 | 65 | 1019.8 |
| 20260504043115 | 10 | 200 | 0.0 | 0.0 | 0.00 | 0.03 | 0.00 | 68 | 1019.7 |
| 20260504041558 | 9 | 200 | 0.0 | 0.0 | 0.00 | 0.03 | 0.00 | 69 | 1019.7 |
| 20260504040157 | 9 | 200 | 0.0 | 0.0 | 0.00 | 0.03 | 0.00 | 69 | 1019.6 |
| 20260504034555 | -17 | 0.0 | 0.0 | 0.00 | 0.03 | 0.00 | 1019.5 | ||
| 20260504033104 | -17 | 0.0 | 0.0 | 0.00 | 0.03 | 0.00 | 1019.4 | ||
| 20260504031557 | -17 | 0.0 | 0.0 | 0.00 | 0.03 | 0.00 | 1019.4 | ||
| 20260504024528 | 9 | 200 | 0.0 | 0.0 | 0.00 | 0.03 | 0.00 | 66 | 1019.5 |
| 20260504023026 | 9 | 200 | 0.0 | 0.0 | 0.00 | 0.03 | 0.00 | 66 | 1019.3 |
| 20260504021510 | 10 | 200 | 0.0 | 3.2 | 0.00 | 0.03 | 0.00 | 65 | 1019.4 |
| 20260504020006 | 10 | 200 | 0.0 | 1.6 | 0.00 | 0.03 | 0.00 | 64 | 1019.5 |
| 20260504014604 | 10 | 200 | 0.0 | 1.6 | 0.00 | 0.03 | 0.00 | 63 | 1019.6 |
| 20260504013056 | 10 | 200 | 0.0 | 0.0 | 0.00 | 0.03 | 0.00 | 62 | 1019.5 |
| 20260504011553 | 10 | 200 | 0.0 | 1.6 | 0.00 | 0.03 | 0.00 | 62 | 1019.5 |
| 20260504010059 | 10 | 200 | 0.0 | 6.4 | 0.00 | 0.03 | 0.00 | 62 | 1019.5 |
| 20260504004552 | 10 | 200 | 0.0 | 1.6 | 0.00 | 0.03 | 0.00 | 62 | 1019.5 |
| 20260504003051 | 10 | 200 | 4.8 | 9.7 | 0.00 | 0.03 | 0.00 | 61 | 1019.4 |
| 20260504001557 | 10 | 200 | 0.0 | 1.6 | 0.00 | 0.03 | 0.00 | 61 | 1019.4 |
| 20260504000054 | 10 | 199 | 0.0 | 1.6 | 0.00 | 0.03 | 0.00 | 64 | 1019.5 |
| 20260503234539 | 10 | 200 | 0.0 | 0.0 | 0.00 | 0.03 | 0.00 | 65 | 1019.5 |
| 20260503233034 | 10 | 200 | 0.0 | 0.0 | 0.00 | 0.03 | 0.00 | 65 | 1019.6 |
| 20260503231533 | 10 | 200 | 0.0 | 0.0 | 0.00 | 0.03 | 0.00 | 63 | 1019.6 |
| 20260503230030 | 10 | 200 | 0.0 | 0.0 | 0.00 | 0.05 | 0.00 | 62 | 1019.6 |
| 20260503224529 | 10 | 200 | 0.0 | 1.6 | 0.00 | 0.05 | 0.00 | 62 | 1019.5 |
| 20260503223028 | 10 | 200 | 0.0 | 4.8 | 0.00 | 0.05 | 0.00 | 62 | 1019.4 |
| 20260503221528 | 10 | 200 | 0.0 | 11.3 | 0.00 | 0.05 | 0.00 | 61 | 1019.5 |
| 20260503220031 | 11 | 200 | 1.6 | 11.3 | 0.00 | 0.05 | 0.00 | 61 | 1019.6 |
| 20260503214533 | 11 | 199 | 0.0 | 1.6 | 0.00 | 0.05 | 0.00 | 60 | 1019.6 |
| 20260503213031 | 11 | 200 | 0.0 | 1.6 | 0.00 | 0.05 | 0.00 | 60 | 1019.7 |
| 20260503211513 | 11 | 200 | 0.0 | 1.6 | 0.00 | 0.05 | 0.00 | 61 | 1019.6 |
| 20260503210014 | 11 | 199 | 0.0 | 1.6 | 0.00 | 0.05 | 0.05 | 61 | 1019.7 |
| 20260503204509 | 11 | 200 | 0.0 | 1.6 | 0.00 | 0.05 | 0.05 | 61 | 1019.8 |
| 20260503203008 | 11 | 200 | 0.0 | 1.6 | 0.00 | 0.05 | 0.05 | 61 | 1019.8 |
| 20260503201505 | 11 | 200 | 4.8 | 14.5 | 0.00 | 0.05 | 0.05 | 60 | 1019.9 |
| 20260503200005 | 11 | 200 | 0.0 | 3.2 | 0.00 | 0.05 | 0.05 | 60 | 1019.8 |
| 20260503194502 | 11 | 200 | 0.0 | 1.6 | 0.00 | 0.05 | 0.05 | 59 | 1019.8 |
| 20260503193005 | 11 | 200 | 6.4 | 19.3 | 0.00 | 0.05 | 0.05 | 58 | 1019.7 |
| 20260503191554 | 11 | 200 | 6.4 | 16.1 | 0.00 | 0.05 | 0.05 | 57 | 1019.7 |
| 20260503190047 | 11 | 200 | 4.8 | 19.3 | 0.00 | 0.05 | 0.05 | 57 | 1019.5 |
| 20260503184545 | 11 | 200 | 0.0 | 16.1 | 0.00 | 0.05 | 0.05 | 57 | 1019.4 |
| 20260503183050 | 11 | 200 | 0.0 | 1.6 | 0.00 | 0.05 | 0.05 | 57 | 1019.2 |
| 20260503181557 | 11 | 200 | 4.8 | 12.9 | 0.00 | 0.05 | 0.05 | 57 | 1019.0 |
| 20260503180047 | 12 | 200 | 0.0 | 3.2 | 0.00 | 0.05 | 0.05 | 57 | 1018.9 |
| 20260503174537 | 12 | 203 | 8.0 | 20.9 | 0.00 | 0.05 | 0.05 | 56 | 1018.6 |
| 20260503173040 | 12 | 201 | 0.0 | 3.2 | 0.00 | 0.05 | 0.05 | 55 | 1018.5 |
| 20260503171535 | 12 | 200 | 0.0 | 3.2 | 0.00 | 0.05 | 0.05 | 54 | 1018.4 |